THOR ABLESTAR DEB, 120

Orbit data source: Space-Track

THOR ABLESTAR DEB, 120 is space debris in LEO originally from a launch on Thu, 29 Jun 1961 UTC launched from the Air Force Eastern Test Range (AFETR). Debris objects in space refer to the collection of defunct objects orbiting the Earth. Examples of debris include non-operational satellites, rocket bodies, and fragments generated from explosions, collisions, or faulty payload assembly.

Loading next visibility...
THOR ABLESTAR DEB details
Identifier
120, 1961-015E
Orbit
LEO
Last TLE update16 hours ago
Origin
Flag of USUSAF SSD (US)
ManufacturerUnknown
MissionSpacecraft
Bus & MotorUnknown
MassUnknown
Launch date (UTC)
1961-06-29 (64 years ago)
Launch vehicleUnknown
Launch site
Air Force Eastern Test Range (AFETR)
Object type
Payload
Rocket body
Debris
Shape & HBRUnknown
Radar Cross SectionMedium (>0.1 m² and <1 m²)

Expand to show TLE details & history

TLE from 16 hours ago
0 THOR ABLESTAR DEB
1 00120U 61015E   25014.65380966  .00001757  00000-0  68842-3 0  9992
2 00120  66.7066 345.8726 0110531  16.9797 343.4951 14.28445860274230
Epoch: 2025-01-14T15:41Z
Definitive object data (Epoch: 2025-01-14T15:41:29.154Z)
Latitude-0.00005°
Longitude-3.85631°
Altitude723.061 km
Speed7.534 km/s
True Right ascension23h 03m 29s
True Declination0° 00' 00"
Sunlit
Object was in daylight at TLE epoch
Visualization TLE readout
Latitude-66.76103°
Longitude-99.8216°
Altitude845.258 km
Speed7.417 km/s
Apparent Right ascension19h 17m 03s
Apparent Declination-57° 40' 46"
Sunlit
Object is in daylight
Visualization observer readout
Local Sidereal Time08:43:53
Azimuth149.022° SSE
Elevation-67.405°
Doppler factor1
Orbital elements
Apogee altitude874.594 km
Perigee altitude716.017 km
Semi-major axis7,173.442 km
Eccentricity0.0110531
Inclination66.7066°
RAAN345.8726°
Arg. of periapsis16.9797°
True anomaly343.13044°
Mean anomaly343.4951°
Eccentric anomaly343.31326°
Mean motion3.57233 °/min
BSTAR0.00068842
Orbital period100.77 mins
Loading maneuver chart data...

THOR ABLESTAR DEB Visibility forecast

Observer location: undefined°, undefined

Span
Click to sort rows by Start time (UTC) header in descending order
Start Az.
Max El. time (UTC)
Max El. Az.
Max El.
End time (UTC)
End Az.
11 mins2025-01-15 09:02:14.966Z325.621° NNW2025-01-15 09:07:14.966Z272.88° WNW42.276°2025-01-15 09:13:14.966Z162.647° S
4 mins2025-01-15 22:05:14.966Z124.703° SE2025-01-15 22:07:14.966Z98.023° ESE14.102°2025-01-15 22:09:14.966Z73.87° E
8 mins2025-01-15 23:46:14.966Z224.157° SW2025-01-15 23:49:14.966Z272.62° WNW40.841°2025-01-15 23:54:14.966Z22.067° NNE
5 mins2025-01-16 06:52:14.966Z15.333° NNE2025-01-16 06:54:14.966Z39.617° NE15.907°2025-01-16 06:57:14.966Z75.295° E
|